Regional Weather Roundup
Issued by NWS

Home | Current Version | Previous Version | Graphics & Text | Print | Product List | Glossary Off
Versions: 1 2 3 4 5 6 7 8 9 10 11 12 13 14 15 16 17 18 19 20 21 22 23 24 25 26 27 28 29 30 31 32 33 34 35 36 37 38 39 40 41 42 43 44 45 46 47 48 49 50

000
ASUS43 KDTX 222310
RWRMI
MICHIGAN HOURLY REGIONAL WEATHER ROUNDUP
NATIONAL WEATHER SERVICE DETROIT/PONTIAC MI
700 PM EDT WED OCT 22 2014

NOTE: "FAIR" INDICATES FEW OR NO CLOUDS BELOW 12,000 FEET WITH NO
SIGNIFICANT WEATHER AND/OR OBSTRUCTION TO VISIBILITY.

MIZ047>049-052>055-059>063-066>070-074>076-081>083-230000-
SOUTHEAST LOWER MICHIGAN

CITY           SKY/WX    TMP DP  RH WIND       PRES   REMARKS
ADRIAN         CLOUDY    49  40  71 N8        30.29S
ALMA           CLOUDY    46  38  72 CALM      30.32F
ANN ARBOR      CLEAR     50  38  63 N8        30.28S
BAD AXE        CLEAR     41  38  87 N3        30.32S
CARO           CLOUDY    45  39  79 N6        30.31S
DETROIT CITY   CLEAR     52  39  61 N7        30.29R
DETROIT        PTCLDY    50  39  66 NW6       30.28S
FLINT          CLOUDY    49  38  65 N6        30.32R
GROSSE ILE     CLEAR     52  39  62 N3        30.26S
HILLSDALE      CLEAR     41  38  88 CALM      30.29S
HOWELL         PTCLDY    45  38  75 CALM      30.29F

CITY           SKY/WX    TMP DP  RH WIND       PRES   REMARKS
JACKSON        CLEAR     43  38  82 N3        30.30R
LAMBERTVILLE   MOCLDY    48  41  76 CALM      30.28S
LANSING        CLOUDY    46  38  73 NE3       30.31F
LAPEER         FAIR      45  38  76 N3        30.29S
MASON          CLOUDY    45  38  77 CALM      30.30S
MONROE         CLEAR     52  39  62 CALM      30.26S
MT. CLEMENS    PTCLDY    47  39  74 N6        30.25F
PONTIAC        PTCLDY    47  37  68 N6        30.28S
PORT HOPE        N/A     45  38  76 N9        30.31S
PORT HURON     CLEAR     45  39  81 N6        30.30R
TRI CITIES     CLOUDY    48  38  68 NE3       30.33S
TROY           CLEAR     51  39  65 N3        30.30S
SAGINAW HB     CLOUDY    46  37  71 N3        30.31S
$$
MIZ043>046-050>051-056>058-064>065-071>073-077>080-230000-
SOUTHWEST LOWER MICHIGAN

CITY           SKY/WX    TMP DP  RH WIND       PRES   REMARKS
BATTLE CREEK   CLOUDY    46  38  73 NE5       30.30F
BENTON HARBOR  CLEAR     46  38  73 CALM      30.29F
BIG RAPIDS     CLEAR     45  36  70 CALM      30.29F
COLDWATER      CLOUDY    47  40  79 NE3       30.30F
FREMONT        FAIR      46  31  56 CALM      30.28F
HOLLAND        CLEAR     49  38  65 N3        30.30F
GRAND RAPIDS   PTCLDY    45  37  73 E6        30.31S
IONIA          CLOUDY    46  38  74 NE3       30.31S
KALAMAZOO      CLEAR     47  38  71 CALM      30.30F
LUDINGTON      CLEAR     40  35  81 CALM      30.30S
MARSHALL       CLOUDY    45  38  76 CALM      30.30F
MOUNT PLEASANT CLEAR     44  36  75 CALM      30.31S
MUSKEGON       PTCLDY    46  35  65 W5        30.30F
SOUTH HAVEN    CLEAR     47  40  74 N3        30.29S
$$
MIZ016>042-230000-
NORTHERN LOWER MICHIGAN

CITY           SKY/WX    TMP DP  RH WIND       PRES   REMARKS
ALPENA         CLEAR     41  33  73 E5        30.31F
BEAVER ISLAND  CLEAR     39  36  88 CALM      30.31S
BELLAIRE       CLEAR     41  35  78 CALM      30.30F
CADILLAC       CLEAR     40  32  71 E3        30.28F
CHARLEVOIX     CLEAR     41  36  84 CALM      30.33F
FRANKFORT      CLEAR     40  34  77 CALM      30.29F
GAYLORD        CLEAR     44  31  60 CALM      30.28F
GRAYLING       CLEAR     39  33  79 CALM      30.31S
HARBOR SPRINGS CLEAR     44  37  77 CALM      30.30F
HOUGHTON LAKE  CLEAR     42  34  73 CALM      30.30F
MANISTEE       CLEAR     43  32  65 CALM      30.30F
OSCODA         CLEAR     41  36  81 NE3       30.31S
PELLSTON       CLEAR     44  36  73 E6        30.30F
ROGERS CITY    CLEAR     39  36  87 CALM      30.32F
TRAVERSE CITY  PTCLDY    43  34  70 CALM      30.29F
$$
MIZ007>008-015-230000-
EASTERN UPPER MICHIGAN

CITY           SKY/WX    TMP DP  RH WIND       PRES   REMARKS
KINROSS        CLEAR     43  34  70 S5        30.30F
MACKINAC ISLAN CLEAR     43  32  66 E7        30.30F
NEWBERRY       CLEAR     39  32  75 SW6       30.29F WCI  35
S. S. MARIE    CLEAR     45  29  53 SE3       30.29F
MUNISING         N/A     47  34  60 S6        30.25F
$$
MIZ004>006-011>014-085-230000-
CENTRAL UPPER MICHIGAN

CITY           SKY/WX    TMP DP  RH WIND       PRES   REMARKS
MANISTIQUE     CLEAR     39  35  85 S6        30.29F WCI  34
ESCANABA       PTCLDY    43  36  75 SE7       30.28F
MENOMINEE      CLEAR     45  36  70 S8        30.27F
SAWYER-GWINN   CLEAR     43  34  70 SE12      30.23F
$$
MIZ001>003-009>011-084-230000-
WESTERN UPPER MICHIGAN

CITY           SKY/WX    TMP DP  RH WIND       PRES   REMARKS
IRON MOUNTAIN  CLEAR     47  32  56 S7        30.23F
HOUGHTON       CLEAR     46  36  68 E6        30.17S
COPPER HARBOR    N/A     48  37  65 S13G22    30.17F
IRONWOOD       CLEAR     55  25  30 S12G20    30.10S
$$

ABBREVIATIONS USED IN REMARKS
   TC - TEMPERATURE IN CELSIUS
  WCI - WIND CHILL INDEX
   HX - HEAT INDEX
  VSB - VISIBILITY




USA.gov is the U.S. government's official web portal to all federal, state and local government web resources and services.